Location: B
(0.0000°N, 0.0000°E)
Time: 10:26:00
(UTC+02:00)

ISS - All Passes

Search period start: 25 April 2014 00:00
Search period end: 05 May 2014 00:00
Orbit: 413 x 418 km, 51.6° (Epoch: 25 April)

Date Brightness Start Highest point End Pass type
(mag) Time Alt. Az. Time Alt. Az. Time Alt. Az.
25 Apr - 00:35:53 10° WNW 00:38:37 24° SW 00:41:22 10° S night (unlit)
25 Apr - 12:11:13 10° WSW 12:14:18 36° NW 12:17:22 10° NNE daylight
25 Apr - 23:46:35 10° NW 23:49:52 59° SW 23:53:10 10° SSE night (unlit)
26 Apr - 11:22:11 10° SSW 11:25:30 82° SE 11:28:47 10° NE daylight
26 Apr - 22:57:46 10° NNW 23:01:00 49° NE 23:04:14 10° SE night (unlit)
27 Apr - 10:33:35 10° S 10:36:33 30° SE 10:39:30 10° ENE daylight
27 Apr - 22:09:28 10° N 22:11:59 20° NE 22:14:30 10° ESE visible
27 Apr - 23:46:58 10° W 23:48:28 13° SW 23:49:59 10° SSW night (unlit)
28 Apr - 09:45:46 10° SSE 09:47:27 13° SE 09:49:08 10° E daylight
28 Apr - 11:21:33 10° W 11:23:56 19° NW 11:26:20 10° N daylight
28 Apr - 22:56:23 10° WNW 22:59:18 28° SW 23:02:13 10° S night (unlit)
29 Apr - 10:31:32 10° SW 10:34:43 45° NW 10:37:53 10° NNE daylight
29 Apr - 22:06:43 10° NW 22:10:01 77° SW 22:13:20 10° SSE visible
30 Apr - 09:42:06 10° SSW 09:45:23 63° SE 09:48:39 10° NE daylight
30 Apr - 21:17:31 10° NNW 21:20:36 37° NE 21:23:42 10° SE visible
01 May - 08:53:09 10° S 08:55:54 24° SE 08:58:38 10° ENE daylight
01 May - 10:31:58 10° WNW 10:32:21 10° NW 10:32:45 10° NW daylight
01 May - 20:28:58 10° NNE 20:31:03 16° NE 20:33:09 10° E visible
01 May - 22:05:26 10° W 22:07:30 16° SW 22:09:35 10° SSW visible
02 May - 08:05:38 10° SE 08:06:15 10° SE 08:06:52 10° ESE daylight
02 May - 09:39:59 10° WSW 09:42:43 24° NW 09:45:26 10° N daylight
02 May - 21:14:43 10° NW 21:17:48 37° SW 21:20:53 10° SSE visible
03 May - 08:49:41 10° SW 08:52:58 63° NW 08:56:13 10° NNE daylight
03 May - 20:24:43 10° NNW 20:27:59 76° NE 20:31:17 10° SE visible
04 May - 07:59:54 10° SSW 08:03:05 44° SE 08:06:15 10° NE daylight
04 May - 19:35:12 10° N 19:38:02 27° NE 19:40:54 10° ESE daylight
